Tracking 19164 objects as of 21-May-2018
HD Live streaming from Space Station
objects crossing your sky now

FENGYUN 1C DEB

Track FENGYUN 1C DEB now!
10-day predictions


NORAD ID: 30061
Int'l Code: 1999-025PN
Perigee: 841.6 km
Apogee: 1,425.7 km
Inclination: 101.9 °
Period: 107.8 minutes
Semi major axis: 7504 km
RCS: 0.0503 m2 (small)
Launch date: May 10, 1999
Source: People's Republic of China (PRC)
Launch site: Taiyaun Space Center, China (TSC)

Note: This is SATELLITE DEBRIS
aabbcc
Your satellite tracking list
Your tracking list is empty




NASA's NSSDC Master Catalog

Two Line Element Set (TLE):
1 30061U 99025PN  18140.51023758  .00000346  00000-0  52001-3 0  9994
2 30061 101.8766 102.8956 0389161 328.9717 145.1992 13.35399990551358
Source of the keplerian elements: AFSPC